TES

decayed
NORAD ID: 26957 Int'l Des: 2001-049 Owner: ISRO Country: IN
LEOCIRCULARRETROGRADE

TESについて

説明を読み込み中...

高度履歴

Altitude vs Time

uPlot chart will show altitude changes over time

軌道要素

1 26957U 01049A 25359.31863573 .13296088 27058-5 20609-3 0 9997
2 26957 97.8220 243.6447 0007632 25.7149 334.4532 16.48230161331525
Epoch: Dec 25, 2025 • Age: 1665 hours

現在のステータス

Position data unavailable
打ち上げ日 Oct 22, 2001
運用期間 24.3 years
落下予定日 Dec 25, 2025
タイプ other

技術仕様

分類 Payload
質量 1108.00 kg
乾燥質量 950.00 kg
総質量 1108.00 kg
長さ 2.80 m
直径 2.00 m
スパン 11.70 m
形状 Box + 2 Pan
製造者 ISAC
バスタイプ IRS
フェーズステータス Unknown Transfer Status
所有者/国 ISRO/IN

大規模コンステレーション

Loading constellations...